• In Deutschland
  • Länderverzeichnis
  • Für 7 Tage
  • Wassertemperatur
  • Satellitenkarten
  • Wetterkarte
  • Widgets
  • user-avatar
    Anmelden

    Stündliche Wetter Hildesheim

    Heute, 25 September, Dienstag

    Zeit Temperatur Niederschläge Wind Luftdruck Luftfeuchtigkeit
    00:00 +5°C° 0 mm 3 m/S 766 mmHg 86%
    01:00 +5°C° 0 mm 2 m/S 767 mmHg 88%
    02:00 +5°C° 0 mm 2 m/S 767 mmHg 89%
    03:00 +5°C° 0 mm 2 m/S 767 mmHg 90%
    04:00 +5°C° 0 mm 2 m/S 767 mmHg 91%
    05:00 +5°C° 0 mm 2 m/S 767 mmHg 91%
    06:00 +5°C° 0 mm 2 m/S 768 mmHg 91%
    07:00 +5°C° 0 mm 2 m/S 768 mmHg 89%
    08:00 +7°C° 0 mm 2 m/S 768 mmHg 82%
    09:00 +9°C° 0 mm 2 m/S 769 mmHg 75%
    10:00 +12°C° 0 mm 2 m/S 769 mmHg 68%
    11:00 +13°C° 0 mm 2 m/S 769 mmHg 63%
    12:00 +14°C° 0 mm 2 m/S 769 mmHg 57%
    13:00 +15°C° 0 mm 2 m/S 769 mmHg 52%
    14:00 +15°C° 0 mm 2 m/S 769 mmHg 52%
    15:00 +15°C° 0 mm 2 m/S 769 mmHg 52%
    16:00 +15°C° 0 mm 1 m/S 768 mmHg 52%
    17:00 +13°C° 0 mm 1 m/S 768 mmHg 57%
    18:00 +12°C° 0 mm 1 m/S 768 mmHg 62%
    19:00 +11°C° 0 mm 1 m/S 768 mmHg 67%
    20:00 +10°C° 0 mm 1 m/S 769 mmHg 69%
    21:00 +9°C° 0 mm 2 m/S 769 mmHg 71%
    22:00 +8°C° 0 mm 2 m/S 769 mmHg 73%
    23:00 +8°C° 0 mm 2 m/S 769 mmHg 75%

    Morgen, 26 September, Mittwoch

    Zeit Temperatur Niederschläge Wind Luftdruck Luftfeuchtigkeit
    00:00 +7°C° 0 mm 2 m/S 768 mmHg 76%
    01:00 +7°C° 0 mm 2 m/S 768 mmHg 78%
    02:00 +7°C° 0 mm 2 m/S 768 mmHg 77%
    03:00 +7°C° 0 mm 2 m/S 768 mmHg 77%
    04:00 +7°C° 0 mm 3 m/S 767 mmHg 76%
    05:00 +7°C° 0 mm 3 m/S 767 mmHg 76%
    06:00 +7°C° 0 mm 3 m/S 767 mmHg 75%
    07:00 +7°C° 0 mm 3 m/S 767 mmHg 74%
    08:00 +8°C° 0 mm 4 m/S 767 mmHg 66%
    09:00 +11°C° 0 mm 4 m/S 767 mmHg 59%
    10:00 +13°C° 0 mm 5 m/S 766 mmHg 52%
    11:00 +14°C° 0 mm 5 m/S 766 mmHg 49%
    12:00 +16°C° 0 mm 5 m/S 766 mmHg 46%
    13:00 +17°C° 0 mm 5 m/S 765 mmHg 44%
    14:00 +17°C° 0 mm 5 m/S 765 mmHg 44%
    15:00 +17°C° 0 mm 5 m/S 764 mmHg 45%
    16:00 +17°C° 0 mm 5 m/S 764 mmHg 46%
    17:00 +17°C° 0 mm 4 m/S 764 mmHg 50%
    18:00 +14°C° 0 mm 4 m/S 764 mmHg 55%
    19:00 +13°C° 0 mm 3 m/S 764 mmHg 59%
    20:00 +12°C° 0 mm 3 m/S 764 mmHg 59%
    21:00 +12°C° 0 mm 3 m/S 764 mmHg 59%
    22:00 +12°C° 0 mm 3 m/S 764 mmHg 59%
    23:00 +12°C° 0 mm 3 m/S 764 mmHg 60%

    übermorgen, 27 September, Donnerstag

    Zeit Temperatur Niederschläge Wind Luftdruck Luftfeuchtigkeit
    00:00 +11°C° 0 mm 3 m/S 764 mmHg 60%
    01:00 +11°C° 0 mm 3 m/S 764 mmHg 61%
    02:00 +11°C° 0 mm 3 m/S 764 mmHg 61%
    03:00 +11°C° 0 mm 3 m/S 764 mmHg 62%
    04:00 +10°C° 0 mm 3 m/S 764 mmHg 62%
    05:00 +10°C° 0 mm 3 m/S 763 mmHg 63%
    06:00 +10°C° 0 mm 3 m/S 763 mmHg 63%
    07:00 +10°C° 0 mm 3 m/S 763 mmHg 64%
    08:00 +12°C° 0 mm 3 m/S 763 mmHg 60%
    09:00 +14°C° 0 mm 3 m/S 763 mmHg 57%
    10:00 +17°C° 0 mm 3 m/S 763 mmHg 53%
    11:00 +19°C° 0 mm 3 m/S 763 mmHg 52%
    12:00 +20°C° 0 mm 3 m/S 762 mmHg 50%
    13:00 +21°C° 0 mm 3 m/S 762 mmHg 49%
    14:00 +21°C° 0 mm 3 m/S 761 mmHg 48%
    15:00 +22°C° 0 mm 3 m/S 761 mmHg 48%
    16:00 +22°C° 0 mm 3 m/S 760 mmHg 48%
    17:00 +20°C° 0 mm 3 m/S 760 mmHg 53%
    18:00 +18°C° 0 mm 2 m/S 759 mmHg 57%
    19:00 +16°C° 0 mm 2 m/S 759 mmHg 62%
    20:00 +15°C° 0 mm 2 m/S 759 mmHg 64%
    21:00 +14°C° 0 mm 2 m/S 759 mmHg 66%
    22:00 +13°C° 0 mm 2 m/S 758 mmHg 68%
    23:00 +13°C° 0 mm 2 m/S 758 mmHg 70%

    28 September, Freitag

    Zeit Temperatur Niederschläge Wind Luftdruck Luftfeuchtigkeit
    00:00 +12°C° 0 mm 2 m/S 757 mmHg 71%
    01:00 +11°C° 0 mm 3 m/S 757 mmHg 73%
    02:00 +10°C° 0 mm 2 m/S 757 mmHg 75%
    03:00 +10°C° 0 mm 2 m/S 757 mmHg 77%
    04:00 +9°C° 0 mm 2 m/S 757 mmHg 80%
    05:00 +9°C° 0 mm 2 m/S 757 mmHg 82%
    06:00 +9°C° 0 mm 2 m/S 757 mmHg 84%
    07:00 +9°C° 0 mm 2 m/S 757 mmHg 86%
    08:00 +10°C° 0 mm 2 m/S 758 mmHg 83%
    09:00 +12°C° 0 mm 2 m/S 758 mmHg 81%
    10:00 +13°C° 0 mm 2 m/S 759 mmHg 78%
    11:00 +14°C° 0 mm 2 m/S 759 mmHg 72%
    12:00 +13°C° 0 mm 3 m/S 759 mmHg 67%
    13:00 +14°C° 0 mm 3 m/S 759 mmHg 62%
    14:00 +14°C° 0 mm 3 m/S 759 mmHg 59%
    15:00 +14°C° 0 mm 3 m/S 758 mmHg 56%
    16:00 +15°C° 0 mm 4 m/S 758 mmHg 53%
    17:00 +13°C° 0 mm 3 m/S 759 mmHg 59%
    18:00 +12°C° 0 mm 3 m/S 759 mmHg 64%
    19:00 +10°C° 0 mm 2 m/S 759 mmHg 69%
    20:00 +10°C° 0 mm 2 m/S 760 mmHg 71%
    21:00 +9°C° 0 mm 2 m/S 761 mmHg 74%
    22:00 +8°C° 0 mm 2 m/S 761 mmHg 77%
    23:00 +7°C° 0 mm 2 m/S 761 mmHg 78%

    29 September, Samstag

    Zeit Temperatur Niederschläge Wind Luftdruck Luftfeuchtigkeit
    00:00 +7°C° 0 mm 2 m/S 761 mmHg 80%
    01:00 +6°C° 0 mm 2 m/S 761 mmHg 82%
    02:00 +6°C° 0 mm 2 m/S 762 mmHg 83%
    03:00 +6°C° 0 mm 1 m/S 762 mmHg 83%
    04:00 +6°C° 0 mm 1 m/S 762 mmHg 84%
    05:00 +6°C° 0 mm 1 m/S 762 mmHg 84%
    06:00 +6°C° 0 mm 1 m/S 762 mmHg 83%
    07:00 +6°C° 0 mm 1 m/S 763 mmHg 83%
    08:00 +8°C° 0 mm 1 m/S 763 mmHg 74%
    09:00 +10°C° 0 mm 1 m/S 763 mmHg 66%
    10:00 +12°C° 0 mm 1 m/S 763 mmHg 57%
    11:00 +13°C° 0 mm 1 m/S 763 mmHg 52%
    12:00 +14°C° 0 mm 1 m/S 763 mmHg 48%
    13:00 +15°C° 0 mm 2 m/S 762 mmHg 43%
    14:00 +15°C° 0 mm 2 m/S 762 mmHg 43%
    15:00 +15°C° 0 mm 2 m/S 762 mmHg 43%
    16:00 +15°C° 0 mm 2 m/S 761 mmHg 43%
    17:00 +13°C° 0 mm 2 m/S 761 mmHg 48%
    18:00 +12°C° 0 mm 2 m/S 761 mmHg 53%
    19:00 +10°C° 0 mm 1 m/S 761 mmHg 59%
    20:00 +9°C° 0 mm 1 m/S 761 mmHg 61%
    21:00 +9°C° 0 mm 1 m/S 761 mmHg 63%
    22:00 +8°C° 0 mm 1 m/S 761 mmHg 66%
    23:00 +8°C° 0 mm 1 m/S 761 mmHg 67%

    30 September, Sonntag

    Zeit Temperatur Niederschläge Wind Luftdruck Luftfeuchtigkeit
    00:00 +8°C° 0 mm 1 m/S 760 mmHg 69%
    01:00 +7°C° 0 mm 1 m/S 760 mmHg 70%
    02:00 +7°C° 0 mm 1 m/S 760 mmHg 71%
    03:00 +7°C° 0 mm 1 m/S 759 mmHg 71%
    04:00 +6°C° 0 mm 1 m/S 759 mmHg 72%
    05:00 +6°C° 0 mm 1 m/S 759 mmHg 72%
    06:00 +6°C° 0 mm 1 m/S 759 mmHg 72%
    07:00 +6°C° 0 mm 1 m/S 758 mmHg 72%
    08:00 +9°C° 0 mm 1 m/S 758 mmHg 65%
    09:00 +10°C° 0 mm 2 m/S 758 mmHg 58%
    10:00 +13°C° 0 mm 2 m/S 758 mmHg 51%
    11:00 +14°C° 0 mm 2 m/S 757 mmHg 47%
    12:00 +16°C° 0 mm 2 m/S 757 mmHg 44%
    13:00 +17°C° 0 mm 2 m/S 756 mmHg 40%
    14:00 +17°C° 0 mm 2 m/S 756 mmHg 40%
    15:00 +18°C° 0 mm 1 m/S 755 mmHg 41%
    16:00 +18°C° 0 mm 1 m/S 755 mmHg 41%
    17:00 +15°C° 0 mm 1 m/S 755 mmHg 47%
    18:00 +13°C° 0 mm 1 m/S 755 mmHg 53%
    19:00 +11°C° 0 mm 1 m/S 755 mmHg 59%
    20:00 +10°C° 0 mm 1 m/S 755 mmHg 61%
    21:00 +10°C° 0 mm 1 m/S 755 mmHg 64%
    22:00 +9°C° 0 mm 1 m/S 755 mmHg 66%
    23:00 +9°C° 0 mm 1 m/S 754 mmHg 67%
    Mehr zeigen